Location: Kosice
(0.0000°N, 21.2500°E)
Time: 06:06:14
(UTC+01:00)

deb Ariane - Pass Details

Date: 24 January 2021
Orbit: 301 x 22545 km, 6.8° (Epoch: 04 March)

Event Time Altitude Azimuth Distance (km) Brightness Sun altitude
Rises 18:32:11 0° 263° (W) 2,059 8.1 -10.6°
Reaches altitude 10° 18:33:29 10° 263° (W) 1,393 6.8 -10.9°
Maximum altitude 18:36:03 90° 339° (NNW) 593 3.4 -11.5°
Enters shadow 18:41:53 15° 83° (E) 3,161 6.5 -12.9°
